K1VL Weather Reports


Display with metric or nautical units.
time (UTC)temp
F
wind
direction
speed
MPH
gust
MPH
rain 1hr
in
rain 24hr
in
rain mn
in
humidity
%
barometer
mb
20260509154016 43 90 4.0 7.0 0.03 0.04 0.04 93 1013.3
20260509153516 43 135 3.0 8.0 0.03 0.03 0.03 93 1013.3
20260509153016 43 113 3.0 6.0 0.03 0.03 0.03 92 1013.4
20260509152516 43 90 3.0 7.0 0.03 0.03 0.03 92 1013.4
20260509152016 43 113 3.0 7.0 0.03 0.03 0.03 91 1013.4
20260509151516 43 135 1.0 4.0 0.03 0.03 0.03 91 1013.4
20260509151016 43 135 1.0 3.0 0.03 0.03 0.03 90 1013.4
20260509150516 43 158 2.0 8.0 0.02 0.02 0.02 89 1013.5
20260509150016 43 90 3.0 7.0 0.01 0.01 0.01 88 1013.5
20260509145536 43 90 3.0 4.0 0.01 0.01 0.01 86 1013.5
20260509145036 43 113 2.0 3.0 0.01 0.01 0.01 86 1013.5
20260509144516 43 135 2.0 4.0 0.01 0.01 0.01 84 1013.5
20260509144036 44 135 3.0 5.0 0.01 0.01 0.01 83 1013.5
20260509143516 44 135 4.0 8.0 0.00 0.00 0.00 81 1013.4
20260509143016 45 113 3.0 7.0 0.00 0.00 0.00 79 1013.3
20260509142536 45 135 3.0 8.0 0.00 0.00 0.00 79 1013.2
20260509142036 45 113 2.0 5.0 0.00 0.00 0.00 77 1013.2
20260509141516 45 90 3.0 5.0 0.00 0.00 0.00 75 1013.1
20260509141016 46 158 2.0 7.0 0.00 0.00 0.00 73 1013.2
20260509140516 46 135 2.0 4.0 0.00 0.00 0.00 73 1013.2
20260509140016 46 113 2.0 6.0 0.00 0.00 0.00 72 1013.3
20260509135516 46 135 3.0 5.0 0.00 0.00 0.00 71 1013.2
20260509135016 46 158 2.0 4.0 0.00 0.00 0.00 72 1013.1
20260509134516 46 113 2.0 6.0 0.00 0.00 0.00 71 1013.1
20260509134016 46 90 5.0 10.0 0.00 0.00 0.00 70 1013.0
20260509133537 46 203 4.0 9.0 0.00 0.00 0.00 70 1013.0
20260509133016 46 180 4.0 9.0 0.00 0.00 0.00 71 1013.0
20260509132516 46 158 4.0 12.0 0.00 0.00 0.00 72 1013.0
20260509132016 47 113 5.0 13.0 0.00 0.00 0.00 72 1013.2
20260509131516 47 90 3.0 8.0 0.00 0.00 0.00 70 1013.1
20260509131016 47 158 4.0 8.0 0.00 0.00 0.00 69 1013.1
20260509130516 46 203 5.0 9.0 0.00 0.00 0.00 70 1013.1
20260509130016 46 135 4.0 7.0 0.00 0.00 0.00 69 1013.1
20260509125517 46 135 5.0 13.0 0.00 0.00 0.00 70 1013.2
20260509125016 46 135 5.0 10.0 0.00 0.00 0.00 67 1013.3
20260509124516 46 135 5.0 13.0 0.00 0.00 0.00 67 1013.3
20260509124016 46 90 3.0 9.0 0.00 0.00 0.00 65 1013.2
20260509123516 46 158 2.0 5.0 0.00 0.00 0.00 64 1013.3
20260509123016 46 135 4.0 8.0 0.00 0.00 0.00 64 1013.4
20260509122516 46 158 4.0 9.0 0.00 0.00 0.00 63 1013.4
20260509122016 46 158 3.0 7.0 0.00 0.00 0.00 63 1013.5
20260509121516 46 113 2.0 8.0 0.00 0.00 0.00 64 1013.4
20260509121016 46 135 3.0 7.0 0.00 0.00 0.00 64 1013.4
20260509120516 45 135 3.0 7.0 0.00 0.00 0.00 66 1013.5
20260509120016 45 68 4.0 7.0 0.00 0.00 0.00 63 1013.5
20260509115516 45 135 2.0 5.0 0.00 0.00 0.00 64 1013.5
20260509115016 44 135 3.0 7.0 0.00 0.00 0.00 63 1013.5
20260509114516 44 90 3.0 8.0 0.00 0.00 0.00 63 1013.5
20260509114016 43 90 3.0 7.0 0.00 0.00 0.00 65 1013.5
20260509113516 42 135 1.0 4.0 0.00 0.00 0.00 68 1013.6
20260509113057 41 0.0 1.0 0.00 0.00 0.00 67 1013.6
20260509112516 40 135 1.0 3.0 0.00 0.00 0.00 71 1013.6
20260509112016 40 0.0 0.0 0.00 0.00 0.00 73 1013.6
20260509111516 40 0.0 3.0 0.00 0.00 0.00 75 1013.6
20260509111016 39 113 1.0 3.0 0.00 0.00 0.00 71 1013.6
20260509110516 39 113 1.0 5.0 0.00 0.00 0.00 75 1013.7
20260509110016 38 113 2.0 5.0 0.00 0.00 0.00 74 1013.7
20260509105516 37 90 1.0 4.0 0.00 0.00 0.00 78 1013.7
20260509105016 36 113 1.0 3.0 0.00 0.00 0.00 84 1013.7
20260509104516 34 113 1.0 6.0 0.00 0.00 0.00 87 1013.7
20260509104016 33 0.0 1.0 0.00 0.00 0.00 95 1013.6
20260509103536 31 0.0 2.0 0.00 0.00 0.00 98 1013.6
20260509103016 30 0.0 1.0 0.00 0.00 0.00 98 1013.5
20260509102516 29 0.0 0.0 0.00 0.00 0.00 98 1013.5
20260509102016 29 0.0 0.0 0.00 0.00 0.00 98 1013.5
20260509101516 29 0.0 0.0 0.00 0.00 0.00 98 1013.5
20260509101036 28 0.0 0.0 0.00 0.00 0.00 98 1013.6
20260509100529 28 0.0 1.0 0.00 0.00 0.00 97 1013.6
20260509100016 28 0.0 0.0 0.00 0.00 0.00 97 1013.6
20260509095516 28 0.0 0.0 0.00 0.00 0.00 97 1013.6
20260509095016 27 0.0 1.0 0.00 0.00 0.00 97 1013.6
20260509094516 27 0.0 0.0 0.00 0.00 0.00 97 1013.5
20260509094016 27 0.0 0.0 0.00 0.00 0.00 97 1013.4
20260509093516 27 0.0 1.0 0.00 0.00 0.00 97 1013.4
20260509093036 27 0.0 0.0 0.00 0.00 0.00 97 1013.3
20260509092516 28 0.0 0.0 0.00 0.00 0.00 97 1013.3
20260509092016 27 0.0 1.0 0.00 0.00 0.00 97 1013.3
20260509091516 27 0.0 0.0 0.00 0.00 0.00 97 1013.3
20260509091016 27 0.0 0.0 0.00 0.00 0.00 97 1013.3
20260509090536 27 0.0 0.0 0.00 0.00 0.00 96 1013.4
20260509090016 28 0.0 0.0 0.00 0.00 0.00 97 1013.4
20260509085516 28 0.0 0.0 0.00 0.00 0.00 97 1013.3
20260509085016 27 0.0 0.0 0.00 0.00 0.00 97 1013.3
20260509084516 27 0.0 0.0 0.00 0.00 0.00 97 1013.2
20260509084016 27 0.0 0.0 0.00 0.00 0.00 97 1013.1
20260509083536 28 0.0 0.0 0.00 0.00 0.00 96 1013.1
20260509083016 28 0.0 0.0 0.00 0.00 0.00 96 1013.1
20260509082516 28 0.0 0.0 0.00 0.00 0.00 96 1013.1
20260509082016 28 0.0 0.0 0.00 0.00 0.00 96 1013.0
20260509081516 28 0.0 0.0 0.00 0.00 0.00 96 1013.1
20260509081016 28 0.0 0.0 0.00 0.00 0.00 96 1013.1
20260509080536 28 0.0 1.0 0.00 0.00 0.00 96 1013.0
20260509080016 28 0.0 0.0 0.00 0.00 0.00 96 1013.0
20260509075516 28 0.0 0.0 0.00 0.00 0.00 96 1012.9
20260509075016 28 0.0 0.0 0.00 0.00 0.00 96 1012.8
20260509074536 28 0.0 1.0 0.00 0.00 0.00 96 1012.8
20260509074036 28 0.0 1.0 0.00 0.00 0.00 96 1012.9
20260509073516 28 0.0 1.0 0.00 0.00 0.00 96 1012.9
20260509073040 28 0.0 1.0 0.00 0.00 0.00 96 1013.0
20260509072516 28 0.0 1.0 0.00 0.00 0.00 96 1013.0
20260509072016 28 0.0 1.0 0.00 0.00 0.00 96 1013.1
20260509071536 28 0.0 1.0 0.00 0.00 0.00 96 1013.2
20260509071036 28 0.0 0.0 0.00 0.00 0.00 96 1013.3
20260509070516 28 0.0 0.0 0.00 0.00 0.00 96 1013.3
20260509070016 28 0.0 0.0 0.00 0.00 0.00 96 1013.4
20260509065516 28 0.0 1.0 0.00 0.00 0.00 96 1013.4
20260509065016 28 0.0 0.0 0.00 0.00 0.00 96 1013.4
20260509064516 28 0.0 0.0 0.00 0.00 0.00 96 1013.5
20260509064017 28 0.0 1.0 0.00 0.00 0.00 96 1013.5
20260509063516 28 0.0 0.0 0.00 0.00 0.00 95 1013.6
20260509063036 28 0.0 0.0 0.00 0.00 0.00 95 1013.6
20260509062516 28 0.0 0.0 0.00 0.00 0.00 95 1013.6
20260509062016 28 0.0 0.0 0.00 0.00 0.00 95 1013.6
20260509061516 28 0.0 0.0 0.00 0.00 0.00 95 1013.6
20260509061036 28 0.0 1.0 0.00 0.00 0.00 95 1013.6
20260509060520 28 0.0 1.0 0.00 0.00 0.00 95 1013.6
20260509060020 29 0.0 0.0 0.00 0.00 0.00 95 1013.6
20260509055516 29 0.0 0.0 0.00 0.00 0.00 95 1013.7
20260509055016 29 0.0 1.0 0.00 0.00 0.00 95 1013.6
20260509054516 29 0.0 0.0 0.00 0.00 0.00 95 1013.6
20260509054036 29 0.0 0.0 0.00 0.00 0.00 95 1013.6
20260509053516 29 0.0 0.0 0.00 0.00 0.00 95 1013.6
20260509053016 29 0.0 0.0 0.00 0.00 0.00 95 1013.6
20260509052516 29 0.0 0.0 0.00 0.00 0.00 95 1013.6
20260509052016 29 0.0 0.0 0.00 0.00 0.00 94 1013.6
20260509051516 29 0.0 1.0 0.00 0.00 0.00 94 1013.6
20260509051016 29 0.0 1.0 0.00 0.00 0.00 94 1013.4
20260509050516 29 0.0 0.0 0.00 0.00 0.00 94 1013.4
20260509050016 29 0.0 1.0 0.00 0.00 0.00 94 1013.4
20260509045516 29 0.0 0.0 0.00 0.00 0.00 94 1013.4
20260509045036 30 0.0 1.0 0.00 0.00 0.00 94 1013.4
20260509044536 30 0.0 1.0 0.00 0.00 0.00 94 1013.4
20260509044016 30 0.0 0.0 0.00 0.00 0.00 93 1013.3
20260509043516 30 0.0 0.0 0.00 0.00 0.00 93 1013.2
20260509043016 30 0.0 1.0 0.00 0.00 0.00 93 1013.2
20260509042536 30 0.0 1.0 0.00 0.00 0.00 93 1013.1
20260509042016 30 0.0 1.0 0.00 0.00 0.00 93 1013.1
20260509041516 30 0.0 1.0 0.00 0.00 0.00 93 1013.1
20260509041016 30 0.0 1.0 0.00 0.00 0.00 93 1013.1
20260509040516 31 0.0 1.0 0.00 0.00 0.00 93 1013.1
20260509040016 31 0.0 1.0 0.00 0.00 0.00 92 1013.1
20260509035516 31 0.0 1.0 0.00 0.00 0.00 92 1013.2
20260509035016 31 0.0 1.0 0.00 0.00 0.00 92 1013.1
20260509034516 31 0.0 1.0 0.00 0.00 0.00 92 1013.1
20260509034016 31 0.0 1.0 0.00 0.00 0.00 91 1013.1
20260509033516 32 0.0 0.0 0.00 0.00 0.00 91 1013.1
20260509033016 32 0.0 1.0 0.00 0.00 0.00 91 1013.1
20260509032516 32 0.0 0.0 0.00 0.00 0.00 90 1013.1
20260509032016 32 0.0 1.0 0.00 0.00 0.00 90 1013.1
20260509031516 32 0.0 1.0 0.00 0.00 0.00 90 1013.0
20260509031016 33 0.0 2.0 0.00 0.00 0.00 90 1013.0
20260509030536 33 0.0 1.0 0.00 0.00 0.00 89 1013.0
20260509030016 33 90 1.0 2.0 0.00 0.00 0.00 90 1012.9
20260509025516 33 113 1.0 2.0 0.00 0.00 0.00 90 1013.0
20260509025016 33 0.0 0.0 0.00 0.00 0.00 90 1012.9
20260509024516 33 113 1.0 2.0 0.00 0.00 0.00 89 1012.8
20260509024016 33 0.0 1.0 0.00 0.00 0.00 89 1012.7
20260509023516 33 0.0 1.0 0.00 0.00 0.00 88 1012.7
20260509023016 34 0.0 1.0 0.00 0.00 0.00 88 1012.7
20260509022516 34 113 1.0 2.0 0.00 0.00 0.00 88 1012.7
20260509022016 34 0.0 1.0 0.00 0.00 0.00 88 1012.7
20260509021516 34 0.0 0.0 0.00 0.00 0.00 88 1012.6
20260509021016 35 0.0 1.0 0.00 0.00 0.00 87 1012.6
20260509020536 35 0.0 1.0 0.00 0.00 0.00 87 1012.5
20260509020016 35 0.0 1.0 0.00 0.00 0.00 87 1012.5
20260509015516 35 0.0 1.0 0.00 0.00 0.00 86 1012.4
20260509015016 36 0.0 1.0 0.00 0.00 0.00 85 1012.4
20260509014536 36 0.0 1.0 0.00 0.00 0.00 85 1012.3
20260509014016 36 0.0 0.0 0.00 0.00 0.00 84 1012.2
20260509013516 37 0.0 0.0 0.00 0.00 0.00 84 1012.2
20260509013036 37 0.0 0.0 0.00 0.00 0.00 83 1012.1
20260509012516 37 0.0 1.0 0.00 0.00 0.00 82 1012.0
20260509012016 38 0.0 1.0 0.00 0.00 0.00 81 1011.9
20260509011516 38 0.0 1.0 0.00 0.00 0.00 80 1011.8
20260509011036 39 0.0 0.0 0.00 0.00 0.00 78 1011.8
20260509010516 40 0.0 0.0 0.00 0.00 0.00 78 1011.7
20260509010129 40 0.0 1.0 0.00 0.00 0.00 75 1011.6
20260509005516 41 0.0 0.0 0.00 0.00 0.00 73 1011.5
20260509005056 41 0.0 1.0 0.00 0.00 0.00 70 1011.5
20260509004536 42 0.0 0.0 0.00 0.00 0.00 70 1011.4
20260509004016 43 0.0 1.0 0.00 0.00 0.00 68 1011.3
20260509003516 43 0.0 1.0 0.00 0.00 0.00 68 1011.3
20260509003036 43 0.0 2.0 0.00 0.00 0.00 69 1011.2
20260509002516 43 0.0 0.0 0.00 0.00 0.00 70 1011.2
20260509002016 43 0.0 0.0 0.00 0.00 0.00 71 1011.1
20260509001516 43 0.0 2.0 0.00 0.00 0.00 69 1011.1
20260509001016 43 0.0 2.0 0.00 0.00 0.00 69 1011.1
20260509000516 43 0.0 0.0 0.00 0.00 0.00 69 1011.1
20260509000016 44 0.0 1.0 0.00 0.00 0.00 68 1011.1
20260508235543 44 248 1.0 3.0 0.00 0.00 0.00 68 1011.0
20260508235016 44 315 1.0 3.0 0.00 0.00 0.00 67 1010.9
20260508234516 44 0.0 4.0 0.00 0.00 0.00 68 1010.9
20260508234016 44 0.0 2.0 0.00 0.00 0.00 67 1010.8
20260508233516 44 0.0 0.0 0.00 0.00 0.00 66 1010.9
20260508233016 44 0.0 1.0 0.00 0.00 0.00 65 1010.9
20260508232516 44 0.0 3.0 0.00 0.00 0.00 66 1010.7
20260508232036 44 315 1.0 3.0 0.00 0.00 0.00 65 1010.8
20260508231517 45 135 1.0 4.0 0.00 0.00 0.00 65 1010.7
20260508231016 45 0.0 2.0 0.00 0.00 0.00 64 1010.8
20260508230516 45 180 1.0 4.0 0.00 0.00 0.00 63 1010.7
20260508230017 45 180 2.0 8.0 0.00 0.00 0.00 63 1010.6
20260508225536 45 225 1.0 3.0 0.00 0.00 0.00 64 1010.7
20260508225016 45 203 2.0 7.0 0.00 0.00 0.00 63 1010.6
20260508224516 45 225 2.0 6.0 0.00 0.00 0.00 64 1010.6
20260508224016 45 225 3.0 8.0 0.00 0.00 0.00 63 1010.5
20260508223516 46 225 2.0 6.0 0.00 0.00 0.00 63 1010.6
20260508223016 46 180 2.0 5.0 0.00 0.00 0.00 64 1010.4
20260508222516 46 225 2.0 6.0 0.00 0.00 0.00 64 1010.4
20260508222036 46 225 2.0 6.0 0.00 0.00 0.00 63 1010.4
20260508221537 46 225 3.0 9.0 0.00 0.00 0.00 61 1010.4
20260508221016 46 225 3.0 9.0 0.00 0.00 0.00 58 1010.4
20260508220516 47 158 2.0 6.0 0.00 0.00 0.00 53 1010.3
20260508220016 47 225 1.0 5.0 0.00 0.00 0.00 49 1010.3
20260508215516 47 315 2.0 5.0 0.00 0.00 0.00 48 1010.2
20260508215016 47 0.0 5.0 0.00 0.00 0.00 48 1010.1
20260508214516 48 270 1.0 3.0 0.00 0.00 0.00 49 1010.0
20260508214036 48 293 1.0 5.0 0.00 0.00 0.00 48 1010.0
20260508213516 48 338 2.0 7.0 0.00 0.00 0.00 47 1010.0
20260508213016 48 315 2.0 5.0 0.00 0.00 0.00 46 1009.9
20260508212516 48 315 5.0 10.0 0.00 0.00 0.00 46 1009.9
20260508212016 48 315 2.0 7.0 0.00 0.00 0.00 46 1009.9
20260508211516 48 293 2.0 5.0 0.00 0.00 0.00 46 1009.9
20260508211016 48 315 2.0 5.0 0.00 0.00 0.00 46 1009.8
20260508210516 48 315 2.0 6.0 0.00 0.00 0.00 46 1009.9
20260508210016 48 315 2.0 10.0 0.00 0.00 0.00 47 1009.9
20260508205536 48 315 2.0 8.0 0.00 0.00 0.00 46 1009.9
20260508205016 48 315 3.0 11.0 0.00 0.00 0.00 43 1009.8
20260508204516 49 315 3.0 5.0 0.00 0.00 0.00 44 1009.8
20260508204036 50 315 2.0 7.0 0.00 0.00 0.00 42 1009.7
20260508203516 49 315 1.0 7.0 0.00 0.00 0.00 47 1009.7
20260508203016 49 315 2.0 7.0 0.00 0.00 0.00 46 1009.7
20260508202516 49 45 1.0 6.0 0.00 0.00 0.00 43 1009.7
20260508202016 49 293 2.0 8.0 0.00 0.00 0.00 43 1009.6
20260508201536 49 315 3.0 12.0 0.00 0.00 0.00 44 1009.6
20260508201016 50 315 6.0 13.0 0.00 0.00 0.00 42 1009.5
20260508200516 49 270 3.0 10.0 0.00 0.00 0.00 45 1009.5
20260508200016 48 315 6.0 12.0 0.00 0.00 0.00 45 1009.6
20260508195536 49 315 8.0 15.0 0.00 0.00 0.00 44 1009.6
20260508195016 49 293 2.0 7.0 0.00 0.00 0.00 46 1009.5
20260508194516 48 315 2.0 6.0 0.00 0.00 0.00 47 1009.6
20260508194016 48 315 5.0 12.0 0.00 0.00 0.00 46 1009.7
20260508193516 49 315 4.0 9.0 0.00 0.00 0.00 45 1009.6
20260508193036 48 0.0 2.0 0.00 0.00 0.00 48 1009.7
20260508192516 48 315 3.0 8.0 0.00 0.00 0.00 50 1009.7
20260508192037 48 315 3.0 7.0 0.00 0.00 0.00 48 1009.7
20260508191516 47 315 2.0 7.0 0.00 0.00 0.00 49 1009.6
20260508191036 47 315 5.0 10.0 0.00 0.00 0.00 47 1009.7
20260508190516 48 315 4.0 11.0 0.00 0.00 0.00 46 1009.7
20260508190016 48 293 4.0 8.0 0.00 0.00 0.00 45 1009.7
20260508185516 49 315 5.0 12.0 0.00 0.00 0.00 45 1009.7
20260508185016 50 203 3.0 9.0 0.00 0.00 0.00 44 1009.7
20260508184516 51 180 3.0 11.0 0.00 0.00 0.00 49 1009.6
20260508184117 50 293 2.0 7.0 0.00 0.00 0.00 46 1009.7
20260508183516 49 203 2.0 6.0 0.00 0.00 0.00 48 1009.8
20260508183016 48 293 3.0 14.0 0.00 0.00 0.00 47 1009.9
20260508182516 48 315 3.0 10.0 0.00 0.00 0.00 48 1010.0
20260508182016 48 293 3.0 10.0 0.00 0.00 0.00 46 1009.9
20260508181517 48 315 2.0 6.0 0.00 0.00 0.00 47 1010.0
20260508181036 48 225 3.0 10.0 0.00 0.00 0.00 50 1009.9
20260508180516 48 315 4.0 9.0 0.00 0.00 0.00 45 1009.9
20260508180037 48 270 3.0 9.0 0.00 0.00 0.00 46 1009.9
20260508175516 48 158 3.0 11.0 0.00 0.00 0.00 47 1009.9
20260508175016 48 180 2.0 7.0 0.00 0.00 0.00 45 1009.9
20260508174537 48 158 3.0 8.0 0.00 0.00 0.00 44 1009.8
20260508174016 48 315 2.0 5.0 0.00 0.00 0.00 47 1009.8
20260508173516 47 315 5.0 11.0 0.00 0.00 0.00 49 1009.9
20260508173016 48 293 3.0 11.0 0.00 0.00 0.00 46 1009.9
20260508172516 47 315 4.0 11.0 0.00 0.00 0.00 48 1009.9
20260508172016 47 315 4.0 12.0 0.00 0.00 0.00 45 1009.9
20260508171517 47 315 3.0 14.0 0.00 0.00 0.00 46 1009.8
20260508171016 47 315 4.0 10.0 0.00 0.00 0.00 47 1009.9
20260508170517 47 315 3.0 8.0 0.00 0.00 0.00 47 1009.8
20260508170036 46 315 4.0 14.0 0.00 0.00 0.00 46 1009.8
20260508165557 46 315 3.0 9.0 0.00 0.00 0.00 48 1009.9
20260508165037 46 315 5.0 12.0 0.00 0.00 0.00 46 1010.0
20260508164516 46 315 5.0 12.0 0.00 0.00 0.00 47 1010.0
20260508164016 46 315 4.0 11.0 0.00 0.00 0.00 48 1010.0
20260508163516 46 315 6.0 14.0 0.00 0.00 0.00 47 1010.1
20260508163037 47 315 5.0 13.0 0.00 0.00 0.00 47 1010.1
20260508162516 46 68 1.0 4.0 0.00 0.00 0.00 53 1010.1
20260508162036 46 338 1.0 4.0 0.00 0.00 0.00 50 1010.1
20260508161516 45 293 4.0 10.0 0.00 0.00 0.00 49 1010.1
20260508161016 46 315 6.0 13.0 0.00 0.00 0.00 47 1010.1
20260508160516 46 338 2.0 6.0 0.00 0.00 0.00 49 1010.1
20260508160037 46 315 3.0 7.0 0.00 0.00 0.00 48 1010.1
20260508155516 46 315 4.0 11.0 0.00 0.00 0.00 48 1010.0
20260508155016 46 315 3.0 8.0 0.00 0.00 0.00 47 1010.1
20260508154516 46 315 3.0 10.0 0.00 0.00 0.00 48 1010.1